This is the latest recevied weather packets stored in our database for station/object KD4EED. If no packets are shown the sender has not sent any weather packets the latest 10 day(s).
| Time | Temp. | Humidity | Pressure | Rain* | Wind** | Luminosity | Snow |
|---|---|---|---|---|---|---|---|
| 1777650061 | 17.78° C | 73% | 1012.2 hPa | - | - | 92 W/m² | - |
| 1777649759 | 17.78° C | 74% | 1012.5 hPa | - | - | 92 W/m² | - |
| 1777649456 | 17.78° C | 73% | 1012.4 hPa | - | - | 81 W/m² | - |
| 1777649152 | 17.78° C | 74% | 1012.4 hPa | - | - | 81 W/m² | - |
| 1777648850 | 17.78° C | 74% | 1012.4 hPa | - | - | 75 W/m² | - |
| 1777648547 | 17.22° C | 75% | 1012.3 hPa | - | - | 69 W/m² | - |
| 1777648243 | 17.22° C | 75% | 1012.2 hPa | - | - | 67 W/m² | - |
| 1777647938 | 17.22° C | 76% | 1012.2 hPa | - | - | 63 W/m² | - |
| 1777647636 | 17.22° C | 76% | 1012.1 hPa | - | - | 58 W/m² | - |
| 1777647332 | 17.22° C | 77% | 1012.1 hPa | - | - | 53 W/m² | - |
| 1777647030 | 17.22° C | 77% | 1011.9 hPa | - | - | 44 W/m² | - |
| 1777646725 | 17.22° C | 78% | 1012.2 hPa | - | - | 40 W/m² | - |
| 1777646421 | 17.22° C | 77% | 1012.1 hPa | - | - | 38 W/m² | - |
| 1777646118 | 17.22° C | 78% | 1012.1 hPa | - | - | 37 W/m² | - |
| 1777645815 | 16.67° C | 78% | 1011.9 hPa | - | - | 32 W/m² | - |
| 1777645513 | 16.67° C | 78% | 1012 hPa | - | - | 25 W/m² | - |
| 1777645208 | 16.67° C | 78% | 1011.8 hPa | - | - | 25 W/m² | - |
| 1777644904 | 16.67° C | 78% | 1011.8 hPa | - | - | 23 W/m² | - |
| 1777644602 | 16.67° C | 79% | 1011.7 hPa | - | - | 20 W/m² | - |
| 1777644297 | 16.67° C | 79% | 1011.6 hPa | - | - | 19 W/m² | - |
| 1777643993 | 16.67° C | 79% | 1011.7 hPa | - | - | 15 W/m² | - |
| 1777643690 | 16.67° C | 80% | 1011.8 hPa | - | - | 14 W/m² | - |
| 1777643388 | 16.67° C | 80% | 1011.6 hPa | - | - | 11 W/m² | - |
| 1777643084 | 16.67° C | 80% | 1011.6 hPa | - | - | 9 W/m² | - |
| 1777642781 | 16.67° C | 80% | 1011.5 hPa | - | - | 8 W/m² | - |
* Rain since midnight (hover to see other rain measurements)
** Current wind speed in m/s (hover to see current wind gust speed)